Time,TemperatureF,DewpointF,PressureIn,WindDirection,WindDirectionDegrees,WindSpeedMPH,WindSpeedGustMPH,Humidity,HourlyPrecipIn,Conditions,Clouds,dailyrainin,SolarRadiationWatts/m^2,SoftwareType,DateUTC
2013-05-24 00:01:00,69.3,68.1,29.83,WNW,296,0.0,0.0,96,0.00,SCT,,0.92,0.0,WeatherDisplay:10.37,2013-05-24 04:01:00,
2013-05-24 00:06:00,69.3,68.1,29.84,WNW,296,0.0,0.0,96,0.00,SCT,,0.92,0.0,WeatherDisplay:10.37,2013-05-24 04:06:00,
2013-05-24 00:11:00,69.3,68.1,29.85,WNW,296,0.0,0.0,96,0.00,SCT,,0.92,0.0,WeatherDisplay:10.37,2013-05-24 04:11:00,
2013-05-24 00:16:00,69.3,68.1,29.85,WNW,296,0.0,0.0,96,0.00,SCT,,0.92,0.0,WeatherDisplay:10.37,2013-05-24 04:16:00,
2013-05-24 00:21:00,69.3,68.1,29.85,WNW,296,0.0,0.0,96,0.00,SCT,,0.92,0.0,WeatherDisplay:10.37,2013-05-24 04:21:00,
2013-05-24 00:26:00,69.4,68.2,29.85,WNW,296,0.0,0.0,96,0.00,SCT,,0.92,0.0,WeatherDisplay:10.37,2013-05-24 04:26:00,
2013-05-24 00:31:00,69.4,68.2,29.85,WNW,295,0.0,0.0,96,0.00,-RA,,0.92,0.0,WeatherDisplay:10.37,2013-05-24 04:31:00,
2013-05-24 00:36:00,69.4,68.2,29.85,WNW,283,0.0,0.0,96,0.00,-RA,,0.92,0.0,WeatherDisplay:10.37,2013-05-24 04:36:00,
2013-05-24 00:41:00,69.4,68.2,29.85,West,273,0.0,0.0,96,0.00,-RA,,0.92,0.0,WeatherDisplay:10.37,2013-05-24 04:41:00,
2013-05-24 00:46:00,69.4,68.2,29.85,West,273,0.0,0.0,96,0.00,-RA,,0.92,0.0,WeatherDisplay:10.37,2013-05-24 04:46:00,
2013-05-24 00:51:00,69.3,68.1,29.85,West,273,0.0,0.0,96,0.00,-RA,,0.92,0.0,WeatherDisplay:10.37,2013-05-24 04:51:00,
2013-05-24 00:56:00,69.1,67.9,29.85,West,273,0.0,0.0,96,0.00,-RA,,0.92,0.0,WeatherDisplay:10.37,2013-05-24 04:56:00,
2013-05-24 01:01:00,68.8,67.6,29.85,West,273,0.0,0.0,96,0.00,BKN,,0.00,0.0,WeatherDisplay:10.37,2013-05-24 05:01:00,
2013-05-24 01:11:00,68.3,67.1,29.85,West,273,0.0,0.0,96,0.00,BKN,,0.00,0.0,WeatherDisplay:10.37,2013-05-24 05:11:00,
2013-05-24 01:16:00,68.1,66.9,29.84,West,273,0.0,0.0,96,0.00,BKN,,0.00,0.0,WeatherDisplay:10.37,2013-05-24 05:16:00,
2013-05-24 01:21:00,67.9,66.7,29.84,West,273,0.0,0.0,96,0.00,BKN,,0.00,0.0,WeatherDisplay:10.37,2013-05-24 05:21:00,
2013-05-24 01:26:00,67.8,66.6,29.83,West,273,0.0,0.0,96,0.00,BKN,,0.00,0.0,WeatherDisplay:10.37,2013-05-24 05:26:00,
2013-05-24 01:31:00,67.6,66.4,29.83,West,273,0.0,0.0,96,0.00,BKN,,0.00,0.0,WeatherDisplay:10.37,2013-05-24 05:31:00,
2013-05-24 01:36:00,67.4,66.2,29.83,West,273,0.0,0.0,96,0.00,BKN,,0.00,0.0,WeatherDisplay:10.37,2013-05-24 05:36:00,
2013-05-24 01:41:00,67.3,66.1,29.83,West,273,0.0,0.0,96,0.00,BKN,,0.00,0.0,WeatherDisplay:10.37,2013-05-24 05:41:00,
2013-05-24 01:46:00,67.1,65.9,29.82,West,273,0.0,0.0,96,0.00,BKN,,0.00,0.0,WeatherDisplay:10.37,2013-05-24 05:46:00,
2013-05-24 01:51:00,66.9,65.7,29.83,West,273,0.0,0.0,96,0.00,BKN,,0.00,0.0,WeatherDisplay:10.37,2013-05-24 05:51:00,
2013-05-24 01:56:00,66.8,65.6,29.83,West,273,0.0,0.0,96,0.00,BKN,,0.00,0.0,WeatherDisplay:10.37,2013-05-24 05:56:00,
2013-05-24 02:01:00,66.6,65.4,29.82,West,273,0.0,0.0,96,0.00,SCT,,0.00,0.0,WeatherDisplay:10.37,2013-05-24 06:01:00,
2013-05-24 02:11:00,66.3,65.1,29.81,SW,220,0.0,0.0,96,0.00,SCT,,0.00,0.0,WeatherDisplay:10.37,2013-05-24 06:11:00,
2013-05-24 02:16:00,66.1,64.9,29.81,SW,215,0.0,0.0,96,0.00,SCT,,0.00,0.0,WeatherDisplay:10.37,2013-05-24 06:16:00,
2013-05-24 02:21:00,66.0,64.5,29.81,SW,215,0.0,0.0,95,0.00,SCT,,0.00,0.0,WeatherDisplay:10.37,2013-05-24 06:21:00,
2013-05-24 02:26:00,65.8,64.3,29.82,SW,215,0.0,0.0,95,0.00,SCT,,0.00,0.0,WeatherDisplay:10.37,2013-05-24 06:26:00,
2013-05-24 02:31:00,65.6,64.1,29.82,SW,215,0.0,0.0,95,0.00,SCT,,0.00,0.0,WeatherDisplay:10.37,2013-05-24 06:31:00,
2013-05-24 02:36:00,65.5,64.0,29.82,SW,215,0.0,0.0,95,0.00,SCT,,0.00,0.0,WeatherDisplay:10.37,2013-05-24 06:36:00,
2013-05-24 02:41:00,65.4,63.9,29.82,SSW,209,0.0,0.0,95,0.00,SCT,,0.00,0.0,WeatherDisplay:10.37,2013-05-24 06:41:00,
2013-05-24 02:46:00,65.3,64.1,29.82,SSW,203,0.0,0.0,96,0.00,SCT,,0.00,0.0,WeatherDisplay:10.37,2013-05-24 06:46:00,
2013-05-24 02:51:00,65.2,64.0,29.82,SSW,203,0.0,0.0,96,0.00,SCT,,0.00,0.0,WeatherDisplay:10.37,2013-05-24 06:51:00,
2013-05-24 03:01:00,65.0,63.8,29.82,SSW,203,0.0,0.0,96,0.00,BKN,,0.00,0.0,WeatherDisplay:10.37,2013-05-24 07:01:00,
2013-05-24 03:11:00,64.8,63.6,29.81,SSW,203,0.0,0.0,96,0.00,BKN,,0.00,0.0,WeatherDisplay:10.37,2013-05-24 07:11:00,
2013-05-24 03:16:00,64.8,63.6,29.81,SSW,203,0.0,0.0,96,0.00,BKN,,0.00,0.0,WeatherDisplay:10.37,2013-05-24 07:16:00,
2013-05-24 03:21:00,64.7,63.5,29.81,SSW,203,0.0,0.0,96,0.00,BKN,,0.00,0.0,WeatherDisplay:10.37,2013-05-24 07:21:00,
2013-05-24 03:26:00,64.7,63.5,29.81,SSW,203,0.0,0.0,96,0.00,BKN,,0.00,0.0,WeatherDisplay:10.37,2013-05-24 07:26:00,
2013-05-24 03:31:00,64.5,63.3,29.80,SSW,203,0.0,0.0,96,0.00,BKN,,0.00,0.0,WeatherDisplay:10.37,2013-05-24 07:31:00,
2013-05-24 03:41:00,64.3,63.1,29.81,SSW,203,0.0,0.0,96,0.00,BKN,,0.00,0.0,WeatherDisplay:10.37,2013-05-24 07:41:00,
2013-05-24 03:46:00,64.3,63.1,29.81,SSW,203,0.0,0.0,96,0.00,BKN,,0.00,0.0,WeatherDisplay:10.37,2013-05-24 07:46:00,
2013-05-24 03:51:00,64.2,63.0,29.80,SSW,203,0.0,0.0,96,0.00,BKN,,0.00,0.0,WeatherDisplay:10.37,2013-05-24 07:51:00,
2013-05-24 03:56:00,64.2,63.0,29.80,SSW,203,0.0,0.0,96,0.00,BKN,,0.00,0.0,WeatherDisplay:10.37,2013-05-24 07:56:00,
2013-05-24 04:01:00,64.0,62.8,29.81,SSW,203,0.0,0.0,96,0.00,SCT,,0.00,0.0,WeatherDisplay:10.37,2013-05-24 08:01:00,
2013-05-24 04:11:00,63.9,62.7,29.81,SSW,203,0.0,0.0,96,0.00,SCT,,0.00,0.0,WeatherDisplay:10.37,2013-05-24 08:11:00,
2013-05-24 04:16:00,63.9,62.7,29.82,SSW,203,0.0,0.0,96,0.00,SCT,,0.00,0.0,WeatherDisplay:10.37,2013-05-24 08:16:00,
2013-05-24 04:21:00,63.9,62.7,29.82,SSW,203,0.0,0.0,96,0.00,SCT,,0.00,0.0,WeatherDisplay:10.37,2013-05-24 08:21:00,
2013-05-24 04:26:00,63.9,62.7,29.82,SSW,203,0.0,0.0,96,0.00,SCT,,0.00,0.0,WeatherDisplay:10.37,2013-05-24 08:26:00,
2013-05-24 04:31:00,63.9,62.7,29.82,SSW,203,0.0,0.0,96,0.00,SCT,,0.00,0.0,WeatherDisplay:10.37,2013-05-24 08:31:00,
2013-05-24 04:36:00,63.9,62.7,29.82,SSW,203,0.0,0.0,96,0.00,SCT,,0.00,0.0,WeatherDisplay:10.37,2013-05-24 08:36:00,
2013-05-24 04:41:00,63.9,62.7,29.82,SSW,203,0.0,0.0,96,0.00,SCT,,0.00,0.0,WeatherDisplay:10.37,2013-05-24 08:41:00,
2013-05-24 04:46:00,63.9,62.7,29.82,SSW,203,0.0,0.0,96,0.00,SCT,,0.00,0.0,WeatherDisplay:10.37,2013-05-24 08:46:00,
2013-05-24 04:51:00,64.0,62.8,29.82,SSW,203,0.0,0.0,96,0.00,SCT,,0.00,0.0,WeatherDisplay:10.37,2013-05-24 08:51:00,
2013-05-24 05:01:00,64.0,62.8,29.82,SSW,203,0.0,0.0,96,0.00,BKN,,0.00,0.0,WeatherDisplay:10.37,2013-05-24 09:01:00,
2013-05-24 05:11:00,63.9,62.7,29.82,SSW,203,0.0,0.0,96,0.00,BKN,,0.00,0.0,WeatherDisplay:10.37,2013-05-24 09:11:00,
2013-05-24 05:16:00,63.9,62.7,29.82,SSW,203,0.0,0.0,96,0.00,BKN,,0.00,0.0,WeatherDisplay:10.37,2013-05-24 09:16:00,
2013-05-24 05:21:00,63.9,62.7,29.82,SSW,203,0.0,0.0,96,0.00,BKN,,0.00,0.0,WeatherDisplay:10.37,2013-05-24 09:21:00,
2013-05-24 05:26:00,63.7,62.5,29.82,SSW,203,0.0,0.0,96,0.00,BKN,,0.00,0.0,WeatherDisplay:10.37,2013-05-24 09:26:00,
2013-05-24 05:31:00,63.7,62.5,29.82,SSW,203,0.0,0.0,96,0.00,BKN,,0.00,0.0,WeatherDisplay:10.37,2013-05-24 09:31:00,
2013-05-24 05:36:00,63.7,62.5,29.82,SSW,203,0.0,0.0,96,0.00,BKN,,0.00,0.0,WeatherDisplay:10.37,2013-05-24 09:36:00,
2013-05-24 05:41:00,63.5,62.3,29.81,SSW,203,0.0,0.0,96,0.00,BKN,,0.00,0.0,WeatherDisplay:10.37,2013-05-24 09:41:00,
2013-05-24 05:46:00,63.5,62.3,29.82,SSW,203,0.0,0.0,96,0.00,BKN,,0.00,0.0,WeatherDisplay:10.37,2013-05-24 09:46:00,
2013-05-24 05:51:00,63.4,62.3,29.82,SSW,203,0.0,0.0,96,0.00,BKN,,0.00,0.0,WeatherDisplay:10.37,2013-05-24 09:51:00,
2013-05-24 05:56:00,63.4,62.2,29.82,SSW,203,0.0,0.0,96,0.00,BKN,,0.00,0.0,WeatherDisplay:10.37,2013-05-24 09:56:00,
2013-05-24 06:01:00,63.4,62.2,29.82,SSW,203,0.0,0.0,96,0.00,BKN,,0.00,0.0,WeatherDisplay:10.37,2013-05-24 10:01:00,
2013-05-24 06:11:00,63.2,62.1,29.83,SSW,203,0.0,0.0,96,0.00,BKN,,0.00,0.0,WeatherDisplay:10.37,2013-05-24 10:11:00,
2013-05-24 06:16:00,63.2,62.0,29.83,SSW,203,0.0,0.0,96,0.00,BKN,,0.00,0.0,WeatherDisplay:10.37,2013-05-24 10:16:00,
2013-05-24 06:21:00,63.2,62.0,29.83,SSW,203,0.0,0.0,96,0.00,BKN,,0.00,5.8,WeatherDisplay:10.37,2013-05-24 10:21:00,
2013-05-24 06:26:00,63.2,62.0,29.83,SSW,203,0.0,0.0,96,0.00,BKN,,0.00,5.8,WeatherDisplay:10.37,2013-05-24 10:26:00,
2013-05-24 06:31:00,63.4,62.2,29.84,SSW,203,0.0,0.0,96,0.00,BKN,,0.00,8.0,WeatherDisplay:10.37,2013-05-24 10:31:00,
2013-05-24 06:36:00,63.4,62.2,29.84,SSW,203,0.0,0.0,96,0.00,BKN,,0.00,8.0,WeatherDisplay:10.37,2013-05-24 10:36:00,
2013-05-24 06:41:00,63.4,62.2,29.84,SSW,203,0.0,0.0,96,0.00,BKN,,0.00,12.6,WeatherDisplay:10.37,2013-05-24 10:41:00,
2013-05-24 06:46:00,63.4,62.5,29.85,SSW,203,0.0,0.0,97,0.00,BKN,,0.00,16.1,WeatherDisplay:10.37,2013-05-24 10:46:00,
2013-05-24 06:51:00,63.5,62.6,29.84,SE,132,0.0,0.0,97,0.00,BKN,,0.00,13.8,WeatherDisplay:10.37,2013-05-24 10:51:00,
2013-05-24 06:56:00,63.5,62.3,29.85,East,97,0.0,0.0,96,0.00,BKN,,0.00,18.4,WeatherDisplay:10.37,2013-05-24 10:56:00,
2013-05-24 07:01:00,63.5,62.3,29.85,East,98,0.0,0.0,96,0.00,BKN,,0.00,40.3,WeatherDisplay:10.37,2013-05-24 11:01:00,
2013-05-24 07:11:00,63.5,62.6,29.85,East,98,0.0,0.0,97,0.00,BKN,,0.00,58.7,WeatherDisplay:10.37,2013-05-24 11:11:00,
2013-05-24 07:16:00,63.5,62.6,29.85,East,98,0.0,0.0,97,0.00,BKN,,0.00,77.1,WeatherDisplay:10.37,2013-05-24 11:16:00,
2013-05-24 07:21:00,63.5,62.6,29.85,East,98,0.0,0.0,97,0.00,BKN,,0.00,62.1,WeatherDisplay:10.37,2013-05-24 11:21:00,
2013-05-24 07:26:00,63.5,62.6,29.85,East,98,0.0,0.0,97,0.00,BKN,,0.00,72.4,WeatherDisplay:10.37,2013-05-24 11:26:00,
2013-05-24 07:31:00,63.7,62.8,29.85,East,98,0.0,0.0,97,0.00,BKN,,0.00,50.6,WeatherDisplay:10.37,2013-05-24 11:31:00,
2013-05-24 07:36:00,63.7,62.8,29.85,East,99,0.0,0.0,97,0.00,BKN,,0.00,61.0,WeatherDisplay:10.37,2013-05-24 11:36:00,
2013-05-24 07:41:00,63.9,63.0,29.85,West,277,0.0,0.0,97,0.00,BKN,,0.00,42.6,WeatherDisplay:10.37,2013-05-24 11:41:00,
2013-05-24 07:46:00,63.9,63.0,29.85,West,277,0.0,0.0,97,0.00,BKN,,0.00,40.3,WeatherDisplay:10.37,2013-05-24 11:46:00,
2013-05-24 07:51:00,63.9,63.0,29.86,NW,318,0.0,0.0,97,0.00,BKN,,0.00,52.9,WeatherDisplay:10.37,2013-05-24 11:51:00,
2013-05-24 07:56:00,63.9,63.0,29.86,NE,41,0.0,0.0,97,0.00,BKN,,0.00,127.7,WeatherDisplay:10.37,2013-05-24 11:56:00,
2013-05-24 08:01:00,63.9,63.0,29.86,NE,47,0.0,0.0,97,0.00,BKN,,0.00,119.6,WeatherDisplay:10.37,2013-05-24 12:01:00,
2013-05-24 08:11:00,64.0,63.1,29.86,NE,39,0.0,0.0,97,0.00,BKN,,0.00,101.2,WeatherDisplay:10.37,2013-05-24 12:11:00,
2013-05-24 08:16:00,64.2,63.3,29.87,NNE,22,0.0,0.0,97,0.00,BKN,,0.00,88.6,WeatherDisplay:10.37,2013-05-24 12:16:00,
2013-05-24 08:21:00,64.3,63.4,29.87,NNE,15,0.0,0.0,97,0.00,BKN,,0.00,74.8,WeatherDisplay:10.37,2013-05-24 12:21:00,
2013-05-24 08:26:00,64.3,63.4,29.87,NNE,15,0.0,0.0,97,0.00,BKN,,0.00,120.8,WeatherDisplay:10.37,2013-05-24 12:26:00,
2013-05-24 08:31:00,64.3,63.4,29.87,NNE,15,0.0,0.0,97,0.00,BKN,,0.00,79.4,WeatherDisplay:10.37,2013-05-24 12:31:00,
2013-05-24 08:36:00,64.5,63.6,29.88,NNE,15,0.0,0.0,97,0.00,BKN,,0.00,80.5,WeatherDisplay:10.37,2013-05-24 12:36:00,
2013-05-24 08:41:00,64.5,63.6,29.88,North,9,0.0,0.0,97,0.00,BKN,,0.00,93.2,WeatherDisplay:10.37,2013-05-24 12:41:00,
2013-05-24 08:46:00,64.5,63.6,29.88,NE,39,0.0,0.0,97,0.00,BKN,,0.00,115.0,WeatherDisplay:10.37,2013-05-24 12:46:00,
2013-05-24 08:51:00,64.5,63.6,29.88,ENE,59,0.0,0.0,97,0.00,BKN,,0.00,127.7,WeatherDisplay:10.37,2013-05-24 12:51:00,
2013-05-24 08:56:00,64.5,63.6,29.88,ENE,59,0.0,0.0,97,0.00,BKN,,0.00,115.0,WeatherDisplay:10.37,2013-05-24 12:56:00,
2013-05-24 09:01:00,64.5,63.6,29.88,NNE,19,0.0,0.0,97,0.00,BKN,,0.00,101.2,WeatherDisplay:10.37,2013-05-24 13:01:00,
2013-05-24 09:11:00,64.5,63.6,29.88,WNW,303,0.0,0.0,97,0.00,BKN,,0.00,147.2,WeatherDisplay:10.37,2013-05-24 13:11:00,
2013-05-24 09:16:00,64.5,63.6,29.89,WNW,303,0.0,0.0,97,0.00,BKN,,0.00,218.5,WeatherDisplay:10.37,2013-05-24 13:16:00,
2013-05-24 09:21:00,64.5,63.6,29.89,WNW,303,0.0,0.0,97,0.00,BKN,,0.00,280.6,WeatherDisplay:10.37,2013-05-24 13:21:00,
2013-05-24 09:26:00,64.3,63.4,29.89,WNW,303,0.0,0.0,97,0.00,BKN,,0.00,202.4,WeatherDisplay:10.37,2013-05-24 13:26:00,
2013-05-24 09:31:00,64.5,63.6,29.90,WNW,303,0.0,0.0,97,0.00,BKN,,0.00,205.9,WeatherDisplay:10.37,2013-05-24 13:31:00,
2013-05-24 09:36:00,64.5,63.6,29.90,WNW,303,0.0,0.0,97,0.00,BKN,,0.00,263.3,WeatherDisplay:10.37,2013-05-24 13:36:00,
2013-05-24 09:41:00,64.8,63.9,29.90,WNW,303,0.0,0.0,97,0.00,BKN,,0.00,266.8,WeatherDisplay:10.37,2013-05-24 13:41:00,
2013-05-24 09:46:00,65.0,64.1,29.90,WNW,303,0.0,0.0,97,0.00,BKN,,0.00,606.0,WeatherDisplay:10.37,2013-05-24 13:46:00,
2013-05-24 09:51:00,65.7,64.9,29.90,WNW,303,0.0,0.0,97,0.00,BKN,,0.00,755.6,WeatherDisplay:10.37,2013-05-24 13:51:00,
2013-05-24 09:56:00,66.4,65.2,29.90,NW,304,0.0,0.0,96,0.00,BKN,,0.00,776.2,WeatherDisplay:10.37,2013-05-24 13:56:00,
2013-05-24 10:01:00,67.1,65.3,29.90,NW,326,0.0,0.0,94,0.00,BKN,,0.00,814.2,WeatherDisplay:10.37,2013-05-24 14:01:00,
2013-05-24 10:11:00,67.8,64.1,29.90,North,360,0.0,0.0,88,0.00,BKN,,0.00,196.6,WeatherDisplay:10.37,2013-05-24 14:11:00,
2013-05-24 10:16:00,67.6,63.3,29.91,NNE,24,0.0,0.0,86,0.00,BKN,,0.00,349.6,WeatherDisplay:10.37,2013-05-24 14:16:00,
2013-05-24 10:21:00,67.4,62.1,29.91,North,9,1.0,5.0,83,0.00,BKN,,0.00,430.1,WeatherDisplay:10.37,2013-05-24 14:21:00,
2013-05-24 10:26:00,67.8,61.8,29.91,North,349,0.0,2.0,81,0.00,BKN,,0.00,422.0,WeatherDisplay:10.37,2013-05-24 14:26:00,
2013-05-24 10:31:00,68.4,61.3,29.92,NNW,346,0.0,2.0,78,0.00,BKN,,0.00,464.6,WeatherDisplay:10.37,2013-05-24 14:31:00,
2013-05-24 10:36:00,69.1,62.0,29.92,NNW,347,0.0,3.0,78,0.00,BKN,,0.00,1214.4,WeatherDisplay:10.37,2013-05-24 14:36:00,
2013-05-24 10:41:00,69.6,62.1,29.92,North,351,0.0,2.0,77,0.00,BKN,,0.00,263.3,WeatherDisplay:10.37,2013-05-24 14:41:00,
2013-05-24 10:46:00,69.8,61.9,29.92,NNW,348,0.0,0.0,76,0.00,BKN,,0.00,301.3,WeatherDisplay:10.37,2013-05-24 14:46:00,
2013-05-24 10:51:00,70.0,62.0,29.93,NNW,348,0.0,2.0,76,0.00,BKN,,0.00,1170.7,WeatherDisplay:10.37,2013-05-24 14:51:00,
2013-05-24 10:56:00,71.0,62.2,29.93,NNW,345,0.0,2.0,74,0.00,BKN,,0.00,1178.8,WeatherDisplay:10.37,2013-05-24 14:56:00,
2013-05-24 11:01:00,71.9,62.0,29.93,NNW,336,0.0,1.0,71,0.00,BKN,,0.00,1125.9,WeatherDisplay:10.37,2013-05-24 15:01:00,
2013-05-24 11:11:00,73.2,61.6,29.93,North,353,0.0,5.0,67,0.00,BKN,,0.00,1164.9,WeatherDisplay:10.37,2013-05-24 15:11:00,
2013-05-24 11:16:00,73.5,59.7,29.93,North,349,2.0,6.0,62,0.00,BKN,,0.00,1162.7,WeatherDisplay:10.37,2013-05-24 15:16:00,
2013-05-24 11:21:00,73.7,60.3,29.93,North,349,0.0,5.0,63,0.00,BKN,,0.00,1186.8,WeatherDisplay:10.37,2013-05-24 15:21:00,
2013-05-24 11:26:00,74.0,59.7,29.93,North,354,1.0,3.0,61,0.00,BKN,,0.00,1170.7,WeatherDisplay:10.37,2013-05-24 15:26:00,
2013-05-24 11:31:00,74.0,59.2,29.94,North,355,5.0,7.0,60,0.00,BKN,,0.00,576.2,WeatherDisplay:10.37,2013-05-24 15:31:00,
2013-05-24 11:36:00,73.7,58.0,29.94,NNW,342,5.0,8.0,58,0.00,BKN,,0.00,461.1,WeatherDisplay:10.37,2013-05-24 15:36:00,
2013-05-24 11:41:00,73.3,57.6,29.94,NNW,340,2.0,7.0,58,0.00,BKN,,0.00,445.1,WeatherDisplay:10.37,2013-05-24 15:41:00,
2013-05-24 11:46:00,73.2,57.5,29.95,NNW,333,3.0,8.0,58,0.00,BKN,,0.00,1214.4,WeatherDisplay:10.37,2013-05-24 15:46:00,
2013-05-24 11:51:00,73.2,58.5,29.95,NNW,328,2.0,6.0,60,0.00,BKN,,0.00,1208.6,WeatherDisplay:10.37,2013-05-24 15:51:00,
2013-05-24 11:56:00,73.2,57.5,29.95,NNW,333,2.0,6.0,58,0.00,BKN,,0.00,1306.4,WeatherDisplay:10.37,2013-05-24 15:56:00,
2013-05-24 12:01:00,73.5,58.3,29.95,NW,326,5.0,6.0,59,0.00,BKN,,0.00,563.5,WeatherDisplay:10.37,2013-05-24 16:01:00,
2013-05-24 12:11:00,73.0,56.4,29.96,NNW,339,5.0,7.0,56,0.00,BKN,,0.00,1248.9,WeatherDisplay:10.37,2013-05-24 16:11:00,
2013-05-24 12:16:00,73.0,55.4,29.96,NNW,347,5.0,7.0,54,0.00,BKN,,0.00,1265.0,WeatherDisplay:10.37,2013-05-24 16:16:00,
2013-05-24 12:21:00,73.3,58.1,29.96,NNW,348,3.0,7.0,59,0.00,BKN,,0.00,1400.7,WeatherDisplay:10.37,2013-05-24 16:21:00,
2013-05-24 12:31:00,73.8,58.5,29.96,NW,314,2.0,6.0,59,0.00,BKN,,0.00,1376.6,WeatherDisplay:10.37,2013-05-24 16:31:00,
2013-05-24 12:36:00,73.7,56.5,29.96,NW,320,5.0,6.0,55,0.00,BKN,,0.00,642.8,WeatherDisplay:10.37,2013-05-24 16:36:00,
2013-05-24 12:41:00,73.2,57.1,29.96,NW,320,2.0,6.0,57,0.00,BKN,,0.00,495.7,WeatherDisplay:10.37,2013-05-24 16:41:00,
2013-05-24 12:46:00,72.7,56.1,29.97,NNW,339,6.0,8.0,56,0.00,BKN,,0.00,1181.1,WeatherDisplay:10.37,2013-05-24 16:46:00,
2013-05-24 12:51:00,72.5,56.4,29.96,North,1,5.0,7.0,57,0.00,BKN,,0.00,1235.1,WeatherDisplay:10.37,2013-05-24 16:51:00,
2013-05-24 12:56:00,72.6,56.9,29.96,North,351,5.0,9.0,58,0.00,BKN,,0.00,1256.9,WeatherDisplay:10.37,2013-05-24 16:56:00,
2013-05-24 13:01:00,72.7,56.6,29.97,NNW,344,5.0,6.0,57,0.00,BKN,,0.00,1256.9,WeatherDisplay:10.37,2013-05-24 17:01:00,
2013-05-24 13:11:00,71.8,56.2,29.97,North,350,6.0,8.0,58,0.00,BKN,,0.00,1237.4,WeatherDisplay:10.37,2013-05-24 17:11:00,
2013-05-24 13:16:00,71.8,56.2,29.97,NNW,345,2.0,8.0,58,0.00,BKN,,0.00,1227.1,WeatherDisplay:10.37,2013-05-24 17:16:00,
2013-05-24 13:21:00,71.8,55.2,29.97,NNW,346,2.0,6.0,56,0.00,BKN,,0.00,1155.8,WeatherDisplay:10.37,2013-05-24 17:21:00,
2013-05-24 13:26:00,72.0,54.4,29.98,North,351,5.0,7.0,54,0.00,BKN,,0.00,1184.5,WeatherDisplay:10.37,2013-05-24 17:26:00,
2013-05-24 13:31:00,72.0,55.5,29.98,NNW,348,3.0,6.0,56,0.00,BKN,,0.00,1224.8,WeatherDisplay:10.37,2013-05-24 17:31:00,
2013-05-24 13:36:00,72.0,55.9,29.98,NNW,343,3.0,8.0,57,0.00,BKN,,0.00,1235.1,WeatherDisplay:10.37,2013-05-24 17:36:00,
2013-05-24 13:41:00,72.1,55.5,29.98,NNW,335,3.0,7.0,56,0.00,BKN,,0.00,1214.4,WeatherDisplay:10.37,2013-05-24 17:41:00,
2013-05-24 13:46:00,72.5,54.9,29.98,NNW,337,3.0,7.0,54,0.00,BKN,,0.00,1190.3,WeatherDisplay:10.37,2013-05-24 17:46:00,
2013-05-24 13:51:00,72.3,54.2,29.98,NNW,331,2.0,7.0,53,0.00,BKN,,0.00,1190.3,WeatherDisplay:10.37,2013-05-24 17:51:00,
2013-05-24 13:56:00,72.3,53.7,29.98,NNW,333,5.0,7.0,52,0.00,BKN,,0.00,488.7,WeatherDisplay:10.37,2013-05-24 17:56:00,
2013-05-24 14:01:00,72.0,55.5,29.98,NNW,335,1.0,7.0,56,0.00,BKN,,0.00,1164.9,WeatherDisplay:10.37,2013-05-24 18:01:00,
2013-05-24 14:11:00,72.1,53.5,29.98,NNW,331,3.0,6.0,52,0.00,BKN,,0.00,1138.5,WeatherDisplay:10.37,2013-05-24 18:11:00,
2013-05-24 14:16:00,72.1,53.0,29.99,NNW,333,5.0,6.0,51,0.00,BKN,,0.00,1117.8,WeatherDisplay:10.37,2013-05-24 18:16:00,
2013-05-24 14:21:00,72.3,54.2,29.99,NNW,333,5.0,6.0,53,0.00,BKN,,0.00,1097.1,WeatherDisplay:10.37,2013-05-24 18:21:00,
2013-05-24 14:26:00,72.3,54.7,29.99,NNW,332,2.0,6.0,54,0.00,BKN,,0.00,1075.3,WeatherDisplay:10.37,2013-05-24 18:26:00,
2013-05-24 14:31:00,72.2,53.6,29.99,NNW,339,2.0,6.0,52,0.00,BKN,,0.00,1083.3,WeatherDisplay:10.37,2013-05-24 18:31:00,
2013-05-24 14:36:00,72.1,51.3,29.99,North,351,5.0,7.0,48,0.00,BKN,,0.00,1083.3,WeatherDisplay:10.37,2013-05-24 18:36:00,
2013-05-24 14:41:00,72.4,53.8,29.99,NNW,338,2.0,5.0,52,0.00,BKN,,0.00,1176.4,WeatherDisplay:10.37,2013-05-24 18:41:00,
2013-05-24 14:46:00,72.5,52.2,29.99,NNW,344,5.0,7.0,49,0.00,BKN,,0.00,1104.0,WeatherDisplay:10.37,2013-05-24 18:46:00,
2013-05-24 14:51:00,72.3,52.1,29.99,North,357,5.0,7.0,49,0.00,BKN,,0.00,1093.6,WeatherDisplay:10.37,2013-05-24 18:51:00,
2013-05-24 14:56:00,72.0,51.8,29.99,NNW,347,2.0,8.0,49,0.00,BKN,,0.00,1056.8,WeatherDisplay:10.37,2013-05-24 18:56:00,
2013-05-24 15:01:00,72.0,51.2,30.00,NNW,342,3.0,7.0,48,0.00,SCT,,0.00,1099.4,WeatherDisplay:10.37,2013-05-24 19:01:00,
2013-05-24 15:11:00,71.6,52.0,30.00,NNW,330,3.0,8.0,50,0.00,SCT,,0.00,1107.4,WeatherDisplay:10.37,2013-05-24 19:11:00,
2013-05-24 15:16:00,72.0,51.2,30.01,NNW,333,5.0,7.0,48,0.00,SCT,,0.00,1051.1,WeatherDisplay:10.37,2013-05-24 19:16:00,
2013-05-24 15:21:00,71.8,50.5,30.01,North,349,3.0,6.0,47,0.00,SCT,,0.00,1089.0,WeatherDisplay:10.37,2013-05-24 19:21:00,
2013-05-24 15:26:00,71.5,50.2,30.01,NNW,345,3.0,6.0,47,0.00,SCT,,0.00,1069.5,WeatherDisplay:10.37,2013-05-24 19:26:00,
2013-05-24 15:31:00,71.3,48.3,30.01,NNW,342,5.0,8.0,44,0.00,SCT,,0.00,1040.8,WeatherDisplay:10.37,2013-05-24 19:31:00,
2013-05-24 15:36:00,71.1,48.7,30.01,NNW,346,6.0,8.0,45,0.00,SCT,,0.00,976.3,WeatherDisplay:10.37,2013-05-24 19:36:00,
2013-05-24 15:41:00,71.1,48.1,30.01,NNW,347,2.0,7.0,44,0.00,SCT,,0.00,970.6,WeatherDisplay:10.37,2013-05-24 19:41:00,
2013-05-24 15:46:00,71.3,48.3,30.01,NW,324,3.0,6.0,44,0.00,SCT,,0.00,958.0,WeatherDisplay:10.37,2013-05-24 19:46:00,
2013-05-24 15:51:00,71.3,47.6,30.01,NNW,331,5.0,7.0,43,0.00,SCT,,0.00,941.9,WeatherDisplay:10.37,2013-05-24 19:51:00,
2013-05-24 15:56:00,71.1,46.8,30.01,NNW,332,2.0,7.0,42,0.00,SCT,,0.00,930.4,WeatherDisplay:10.37,2013-05-24 19:56:00,
2013-05-24 16:01:00,70.9,44.7,30.01,NNW,341,6.0,8.0,39,0.00,SCT,,0.00,920.0,WeatherDisplay:10.37,2013-05-24 20:01:00,
2013-05-24 16:11:00,70.8,46.6,30.01,NNW,343,3.0,8.0,42,0.00,SCT,,0.00,879.8,WeatherDisplay:10.37,2013-05-24 20:11:00,
2013-05-24 16:16:00,70.8,46.6,30.01,North,350,3.0,8.0,42,0.00,SCT,,0.00,856.7,WeatherDisplay:10.37,2013-05-24 20:16:00,
2013-05-24 16:21:00,70.8,46.6,30.02,North,349,6.0,9.0,42,0.00,SCT,,0.00,834.9,WeatherDisplay:10.37,2013-05-24 20:21:00,
2013-05-24 16:26:00,70.6,45.1,30.02,NNW,348,3.0,7.0,40,0.00,SCT,,0.00,802.7,WeatherDisplay:10.37,2013-05-24 20:26:00,
2013-05-24 16:31:00,70.6,45.1,30.02,NNW,343,3.0,6.0,40,0.00,SCT,,0.00,770.5,WeatherDisplay:10.37,2013-05-24 20:31:00,
2013-05-24 16:41:00,70.3,44.2,30.02,NNW,345,3.0,9.0,39,0.00,SCT,,0.00,699.2,WeatherDisplay:10.37,2013-05-24 20:41:00,
2013-05-24 16:46:00,70.3,46.1,30.02,NNW,343,5.0,7.0,42,0.00,SCT,,0.00,663.6,WeatherDisplay:10.37,2013-05-24 20:46:00,
2013-05-24 16:51:00,70.3,46.1,30.02,NNW,327,2.0,7.0,42,0.00,SCT,,0.00,629.1,WeatherDisplay:10.37,2013-05-24 20:51:00,
2013-05-24 16:56:00,70.3,45.5,30.02,NNW,342,5.0,7.0,41,0.00,SCT,,0.00,610.7,WeatherDisplay:10.37,2013-05-24 20:56:00,
2013-05-24 17:01:00,70.3,44.8,30.02,North,352,3.0,6.0,40,0.00,FEW,,0.00,579.6,WeatherDisplay:10.37,2013-05-24 21:01:00,
2013-05-24 17:11:00,70.3,44.2,30.03,NNW,327,5.0,8.0,39,0.00,FEW,,0.00,539.3,WeatherDisplay:10.37,2013-05-24 21:11:00,
2013-05-24 17:16:00,70.1,43.3,30.03,NNW,336,3.0,6.0,38,0.00,FEW,,0.00,511.8,WeatherDisplay:10.37,2013-05-24 21:16:00,
2013-05-24 17:21:00,70.3,44.8,30.03,NNW,343,3.0,6.0,40,0.00,FEW,,0.00,483.0,WeatherDisplay:10.37,2013-05-24 21:21:00,
2013-05-24 17:26:00,70.3,46.1,30.03,North,351,2.0,5.0,42,0.00,FEW,,0.00,448.5,WeatherDisplay:10.37,2013-05-24 21:26:00,
2013-05-24 17:31:00,70.4,47.4,30.04,NNW,347,3.0,6.0,44,0.00,FEW,,0.00,420.9,WeatherDisplay:10.37,2013-05-24 21:31:00,
2013-05-24 17:36:00,70.4,46.2,30.03,NNW,335,3.0,6.0,42,0.00,FEW,,0.00,389.9,WeatherDisplay:10.37,2013-05-24 21:36:00,
2013-05-24 17:41:00,70.4,45.6,30.04,NNW,335,3.0,7.0,41,0.00,FEW,,0.00,368.0,WeatherDisplay:10.37,2013-05-24 21:41:00,
2013-05-24 17:46:00,70.4,44.9,30.04,NNW,338,3.0,6.0,40,0.00,FEW,,0.00,346.1,WeatherDisplay:10.37,2013-05-24 21:46:00,
2013-05-24 17:51:00,70.1,44.0,30.04,NNW,340,5.0,6.0,39,0.00,FEW,,0.00,335.8,WeatherDisplay:10.37,2013-05-24 21:51:00,
2013-05-24 17:56:00,69.9,43.8,30.04,NNW,347,5.0,7.0,39,0.00,FEW,,0.00,333.5,WeatherDisplay:10.37,2013-05-24 21:56:00,
2013-05-24 18:01:00,69.6,44.2,30.04,NNW,346,3.0,7.0,40,0.00,FEW,,0.00,335.8,WeatherDisplay:10.37,2013-05-24 22:01:00,
2013-05-24 18:11:00,69.1,45.0,30.05,NNW,347,3.0,6.0,42,0.00,FEW,,0.00,371.5,WeatherDisplay:10.37,2013-05-24 22:11:00,
2013-05-24 18:16:00,69.1,45.0,30.05,NW,309,1.0,5.0,42,0.00,FEW,,0.00,379.5,WeatherDisplay:10.37,2013-05-24 22:16:00,
2013-05-24 18:21:00,69.0,45.0,30.05,WNW,288,2.0,6.0,42,0.00,FEW,,0.00,376.0,WeatherDisplay:10.37,2013-05-24 22:21:00,
2013-05-24 18:26:00,68.9,43.6,30.05,NNW,327,3.0,7.0,40,0.00,FEW,,0.00,330.0,WeatherDisplay:10.37,2013-05-24 22:26:00,
2013-05-24 18:31:00,68.6,44.0,30.05,NNW,347,2.0,5.0,41,0.00,FEW,,0.00,71.3,WeatherDisplay:10.37,2013-05-24 22:31:00,
2013-05-24 18:36:00,68.3,43.7,30.06,NNW,342,1.0,5.0,41,0.00,FEW,,0.00,54.0,WeatherDisplay:10.37,2013-05-24 22:36:00,
2013-05-24 18:41:00,67.8,42.0,30.06,NNW,341,5.0,7.0,39,0.00,FEW,,0.00,48.3,WeatherDisplay:10.37,2013-05-24 22:41:00,
2013-05-24 18:46:00,67.3,42.8,30.06,NNW,343,1.0,6.0,41,0.00,FEW,,0.00,46.0,WeatherDisplay:10.37,2013-05-24 22:46:00,
2013-05-24 18:56:00,66.6,42.8,30.06,NW,324,1.0,5.0,42,0.00,FEW,,0.00,40.3,WeatherDisplay:10.37,2013-05-24 22:56:00,
2013-05-24 19:01:00,66.3,40.6,30.06,NNW,329,2.0,6.0,39,0.00,FEW,,0.00,36.8,WeatherDisplay:10.37,2013-05-24 23:01:00,
2013-05-24 19:11:00,65.8,41.4,30.07,North,350,2.0,6.0,41,0.00,FEW,,0.00,29.9,WeatherDisplay:10.37,2013-05-24 23:11:00,
2013-05-24 19:16:00,65.6,42.5,30.07,North,351,1.0,2.0,43,0.00,FEW,,0.00,28.7,WeatherDisplay:10.37,2013-05-24 23:16:00,
2013-05-24 19:21:00,65.5,42.4,30.07,North,353,1.0,2.0,43,0.00,FEW,,0.00,24.2,WeatherDisplay:10.37,2013-05-24 23:21:00,
2013-05-24 19:26:00,65.3,42.8,30.07,NNW,340,2.0,6.0,44,0.00,FEW,,0.00,21.8,WeatherDisplay:10.37,2013-05-24 23:26:00,
2013-05-24 19:31:00,65.2,42.1,30.07,NNW,333,1.0,5.0,43,0.00,FEW,,0.00,20.7,WeatherDisplay:10.37,2013-05-24 23:31:00,
2013-05-24 19:36:00,65.0,41.9,30.07,NW,321,1.0,5.0,43,0.00,FEW,,0.00,18.4,WeatherDisplay:10.37,2013-05-24 23:36:00,
2013-05-24 19:41:00,64.8,42.3,30.08,NNW,344,0.0,3.0,44,0.00,FEW,,0.00,16.1,WeatherDisplay:10.37,2013-05-24 23:41:00,
2013-05-24 19:46:00,64.5,41.5,30.08,North,357,1.0,5.0,43,0.00,FEW,,0.00,13.8,WeatherDisplay:10.37,2013-05-24 23:46:00,
2013-05-24 19:51:00,64.3,41.9,30.08,North,6,1.0,2.0,44,0.00,FEW,,0.00,12.6,WeatherDisplay:10.37,2013-05-24 23:51:00,
2013-05-24 19:56:00,64.2,42.4,30.09,NNE,26,0.0,3.0,45,0.00,FEW,,0.00,12.6,WeatherDisplay:10.37,2013-05-24 23:56:00,
2013-05-24 20:01:00,64.0,42.8,30.09,NNE,31,0.0,1.0,46,0.00,CLR,,0.00,10.4,WeatherDisplay:10.37,2013-05-25 00:01:00,
2013-05-24 20:11:00,63.7,43.6,30.09,NNW,341,0.0,0.0,48,0.00,CLR,,0.00,5.8,WeatherDisplay:10.37,2013-05-25 00:11:00,
2013-05-24 20:16:00,63.5,44.0,30.09,North,0,0.0,0.0,49,0.00,CLR,,0.00,0.0,WeatherDisplay:10.37,2013-05-25 00:16:00,
2013-05-24 20:21:00,63.2,44.2,30.09,NNE,21,0.0,0.0,50,0.00,CLR,,0.00,0.0,WeatherDisplay:10.37,2013-05-25 00:21:00,
2013-05-24 20:26:00,63.1,43.6,30.09,NNE,18,0.0,0.0,49,0.00,CLR,,0.00,0.0,WeatherDisplay:10.37,2013-05-25 00:26:00,
2013-05-24 20:31:00,62.7,43.3,30.10,NNE,18,0.0,0.0,49,0.00,CLR,,0.00,0.0,WeatherDisplay:10.37,2013-05-25 00:31:00,
2013-05-24 20:36:00,62.4,42.4,30.10,NNE,18,0.0,0.0,48,0.00,CLR,,0.00,0.0,WeatherDisplay:10.37,2013-05-25 00:36:00,
2013-05-24 20:41:00,62.2,42.8,30.10,NNE,18,0.0,0.0,49,0.00,CLR,,0.00,0.0,WeatherDisplay:10.37,2013-05-25 00:41:00,
2013-05-24 20:46:00,62.0,42.6,30.11,NNE,18,0.0,0.0,49,0.00,CLR,,0.00,0.0,WeatherDisplay:10.37,2013-05-25 00:46:00,
2013-05-24 20:51:00,61.8,43.0,30.11,NNE,18,0.0,0.0,50,0.00,CLR,,0.00,0.0,WeatherDisplay:10.37,2013-05-25 00:51:00,
2013-05-24 20:56:00,61.6,43.3,30.12,NNE,18,0.0,0.0,51,0.00,CLR,,0.00,0.0,WeatherDisplay:10.37,2013-05-25 00:56:00,
2013-05-24 21:01:00,61.5,42.7,30.12,NNE,18,0.0,0.0,50,0.00,CLR,,0.00,0.0,WeatherDisplay:10.37,2013-05-25 01:01:00,
2013-05-24 21:11:00,61.2,45.4,30.12,NNE,18,0.0,0.0,56,0.00,CLR,,0.00,0.0,WeatherDisplay:10.37,2013-05-25 01:11:00,
2013-05-24 21:16:00,61.0,44.7,30.12,NNE,18,0.0,0.0,55,0.00,CLR,,0.00,0.0,WeatherDisplay:10.37,2013-05-25 01:16:00,
2013-05-24 21:21:00,60.9,45.1,30.12,NNE,18,0.0,0.0,56,0.00,CLR,,0.00,0.0,WeatherDisplay:10.37,2013-05-25 01:21:00,
2013-05-24 21:26:00,60.5,45.2,30.12,NNE,18,0.0,0.0,57,0.00,CLR,,0.00,0.0,WeatherDisplay:10.37,2013-05-25 01:26:00,
2013-05-24 21:31:00,60.2,44.9,30.12,NNE,18,0.0,0.0,57,0.00,CLR,,0.00,0.0,WeatherDisplay:10.37,2013-05-25 01:31:00,
2013-05-24 21:36:00,60.0,45.1,30.13,NNE,18,0.0,0.0,58,0.00,CLR,,0.00,0.0,WeatherDisplay:10.37,2013-05-25 01:36:00,
2013-05-24 21:41:00,59.8,45.4,30.13,NNE,18,0.0,0.0,59,0.00,CLR,,0.00,0.0,WeatherDisplay:10.37,2013-05-25 01:41:00,
2013-05-24 21:46:00,59.5,45.6,30.14,NNE,18,0.0,0.0,60,0.00,CLR,,0.00,0.0,WeatherDisplay:10.37,2013-05-25 01:46:00,
2013-05-24 21:51:00,59.2,45.3,30.14,NNE,18,0.0,0.0,60,0.00,CLR,,0.00,0.0,WeatherDisplay:10.37,2013-05-25 01:51:00,
2013-05-24 21:56:00,58.9,45.0,30.14,NNE,18,0.0,0.0,60,0.00,CLR,,0.00,0.0,WeatherDisplay:10.37,2013-05-25 01:56:00,
2013-05-24 22:01:00,58.6,45.6,30.14,NNE,18,0.0,0.0,62,0.00,CLR,,0.00,0.0,WeatherDisplay:10.37,2013-05-25 02:01:00,
2013-05-24 22:11:00,58.0,45.5,30.15,NNE,18,0.0,0.0,63,0.00,CLR,,0.00,0.0,WeatherDisplay:10.37,2013-05-25 02:11:00,
2013-05-24 22:16:00,57.6,45.6,30.15,NNE,18,0.0,0.0,64,0.00,CLR,,0.00,0.0,WeatherDisplay:10.37,2013-05-25 02:16:00,
2013-05-24 22:21:00,57.4,45.3,30.15,NNE,18,0.0,0.0,64,0.00,CLR,,0.00,0.0,WeatherDisplay:10.37,2013-05-25 02:21:00,
2013-05-24 22:26:00,57.1,45.9,30.15,NNE,18,0.0,0.0,66,0.00,CLR,,0.00,0.0,WeatherDisplay:10.37,2013-05-25 02:26:00,
2013-05-24 22:31:00,56.9,46.4,30.15,NNE,18,0.0,0.0,68,0.00,CLR,,0.00,0.0,WeatherDisplay:10.37,2013-05-25 02:31:00,
2013-05-24 22:36:00,56.6,47.0,30.16,NNE,18,0.0,0.0,70,0.00,CLR,,0.00,0.0,WeatherDisplay:10.37,2013-05-25 02:36:00,
2013-05-24 22:41:00,56.5,47.2,30.16,NNE,18,0.0,0.0,71,0.00,CLR,,0.00,0.0,WeatherDisplay:10.37,2013-05-25 02:41:00,
2013-05-24 22:46:00,56.3,47.4,30.17,NNE,18,0.0,0.0,72,0.00,CLR,,0.00,0.0,WeatherDisplay:10.37,2013-05-25 02:46:00,
2013-05-24 22:51:00,56.0,46.7,30.17,NNE,18,0.0,0.0,71,0.00,CLR,,0.00,0.0,WeatherDisplay:10.37,2013-05-25 02:51:00,
2013-05-24 22:56:00,55.9,46.6,30.17,NNE,18,0.0,0.0,71,0.00,CLR,,0.00,0.0,WeatherDisplay:10.37,2013-05-25 02:56:00,
2013-05-24 23:01:00,55.6,44.8,30.17,NNE,18,0.0,0.0,67,0.00,CLR,,0.00,0.0,WeatherDisplay:10.37,2013-05-25 03:01:00,
2013-05-24 23:11:00,55.3,42.5,30.17,NNE,18,0.0,0.0,62,0.00,CLR,,0.00,0.0,WeatherDisplay:10.37,2013-05-25 03:11:00,
2013-05-24 23:16:00,55.4,41.7,30.17,NNE,18,0.0,0.0,60,0.00,CLR,,0.00,0.0,WeatherDisplay:10.37,2013-05-25 03:16:00,
2013-05-24 23:21:00,55.6,41.9,30.17,NNE,18,0.0,0.0,60,0.00,CLR,,0.00,0.0,WeatherDisplay:10.37,2013-05-25 03:21:00,
2013-05-24 23:26:00,55.7,42.0,30.17,NNE,18,0.0,0.0,60,0.00,CLR,,0.00,0.0,WeatherDisplay:10.37,2013-05-25 03:26:00,
2013-05-24 23:31:00,55.9,42.2,30.17,NNE,18,0.0,0.0,60,0.00,CLR,,0.00,0.0,WeatherDisplay:10.37,2013-05-25 03:31:00,
2013-05-24 23:36:00,55.9,41.8,30.17,NNE,18,0.0,0.0,59,0.00,CLR,,0.00,0.0,WeatherDisplay:10.37,2013-05-25 03:36:00,
2013-05-24 23:41:00,55.9,41.8,30.17,NNE,18,0.0,0.0,59,0.00,CLR,,0.00,0.0,WeatherDisplay:10.37,2013-05-25 03:41:00,
2013-05-24 23:46:00,55.9,41.8,30.17,NNE,18,0.0,0.0,59,0.00,CLR,,0.00,0.0,WeatherDisplay:10.37,2013-05-25 03:46:00,
2013-05-24 23:51:00,55.7,42.0,30.17,NNE,18,0.0,0.0,60,0.00,CLR,,0.00,0.0,WeatherDisplay:10.37,2013-05-25 03:51:00,
2013-05-24 23:56:00,55.7,42.0,30.17,NNE,18,0.0,0.0,60,0.00,CLR,,0.00,0.0,WeatherDisplay:10.37,2013-05-25 03:56:00,